Private Wetterstation Wechselburg
Wetterdaten: Mittwoch, 22.04.2015
Datum Zeit Temp. +2m Bodentemp. Temp.+5cm Temp. Wind Windchill X Diff Temp. Feuchte +2m Feuchte +5cm Sonnenschein Luftdruck Regen Wind Richtung Richtung Sonnenschein Taupunkt Windchill Windben
22.04.2015 00:00 11,1 C 22,7 C 10,0 C 10,5 C 9,3 C 0,0 C 51 % 57 % 0 % 1027,8 hPa 0,0 l/m 1,8 km/h (1 Bft) W 270 0 min 1,4 C 9,3 C 0,0 km/h (0 Bft)
22.04.2015 00:05 11,1 C 22,7 C 9,9 C 10,5 C 9,3 C 0,0 C 51 % 57 % 0 % 1027,8 hPa 0,0 l/m 1,6 km/h (1 Bft) S-SO 157 0 min 1,4 C 9,3 C 1,9 km/h (1 Bft)
22.04.2015 00:10 10,8 C 22,7 C 9,8 C 10,2 C 9,0 C 0,0 C 52 % 57 % 0 % 1027,8 hPa 0,0 l/m 1,4 km/h (1 Bft) SW 225 0 min 1,3 C 9,0 C 3,9 km/h (1 Bft)
22.04.2015 00:15 10,8 C 22,7 C 9,7 C 10,2 C 9,0 C 0,0 C 52 % 57 % 0 % 1027,6 hPa 0,0 l/m 1,9 km/h (1 Bft) S-SO 157 0 min 1,3 C 9,0 C 3,7 km/h (1 Bft)
22.04.2015 00:20 10,7 C 22,7 C 9,7 C 10,1 C 9,0 C 0,0 C 52 % 57 % 0 % 1027,6 hPa 0,0 l/m 2,3 km/h (1 Bft) W-SW 247 0 min 1,3 C 9,0 C 1,9 km/h (1 Bft)
22.04.2015 00:25 10,6 C 22,6 C 9,5 C 10,1 C 9,0 C 0,0 C 52 % 57 % 0 % 1027,6 hPa 0,0 l/m 2,3 km/h (1 Bft) SW 225 0 min 1,2 C 9,0 C 4,5 km/h (1 Bft)
22.04.2015 00:30 10,5 C 22,6 C 9,4 C 10,0 C 8,9 C 0,0 C 51 % 57 % 0 % 1027,6 hPa 0,0 l/m 2,1 km/h (1 Bft) S 180 0 min 0,8 C 8,9 C 2,3 km/h (1 Bft)
22.04.2015 00:35 10,5 C 22,6 C 9,5 C 9,9 C 8,8 C 0,0 C 51 % 57 % 0 % 1027,5 hPa 0,0 l/m 2,3 km/h (1 Bft) S 180 0 min 0,8 C 8,8 C 1,9 km/h (1 Bft)
22.04.2015 00:40 10,4 C 22,6 C 9,2 C 9,8 C 8,6 C 0,0 C 52 % 57 % 0 % 1027,5 hPa 0,0 l/m 1,3 km/h (1 Bft) S 180 0 min 1,0 C 8,6 C 1,6 km/h (1 Bft)
22.04.2015 00:45 10,3 C 22,6 C 9,2 C 9,7 C 8,5 C 0,0 C 52 % 57 % 0 % 1027,5 hPa 0,0 l/m 1,3 km/h (1 Bft) W 270 0 min 0,9 C 8,5 C 7,9 km/h (2 Bft)
22.04.2015 00:50 10,2 C 22,6 C 9,1 C 9,6 C 8,5 C 0,0 C 52 % 57 % 0 % 1027,5 hPa 0,0 l/m 1,9 km/h (1 Bft) S 180 0 min 0,8 C 8,5 C 0,0 km/h (0 Bft)
22.04.2015 00:55 10,1 C 22,5 C 9,1 C 9,5 C 8,4 C 0,0 C 52 % 57 % 0 % 1027,7 hPa 0,0 l/m 1,8 km/h (1 Bft) SW 225 0 min 0,7 C 8,4 C 7,9 km/h (2 Bft)
22.04.2015 01:00 10,0 C 22,5 C 8,9 C 9,4 C 8,2 C 0,0 C 52 % 58 % 0 % 1027,7 hPa 0,0 l/m 1,1 km/h (1 Bft) NW 315 0 min 0,6 C 8,2 C 3,4 km/h (1 Bft)
22.04.2015 01:05 9,9 C 22,5 C 8,9 C 9,3 C 8,1 C 0,0 C 52 % 58 % 0 % 1027,7 hPa 0,0 l/m 1,3 km/h (1 Bft) N-NW 337 0 min 0,5 C 8,1 C 2,1 km/h (1 Bft)
22.04.2015 01:10 9,8 C 22,5 C 8,7 C 9,2 C 7,9 C 0,0 C 53 % 58 % 0 % 1027,7 hPa 0,0 l/m 1,1 km/h (1 Bft) W-NW 292 0 min 0,7 C 7,9 C 0,0 km/h (0 Bft)
22.04.2015 01:15 9,7 C 22,5 C 8,5 C 9,0 C 7,7 C 0,0 C 52 % 58 % 0 % 1027,6 hPa 0,0 l/m 0,8 km/h (0 Bft) W-SW 247 0 min 0,3 C 7,7 C 1,9 km/h (1 Bft)
22.04.2015 01:20 9,5 C 22,4 C 8,4 C 8,9 C 7,6 C 0,0 C 52 % 58 % 0 % 1027,6 hPa 0,0 l/m 1,0 km/h (0 Bft) W-SW 247 0 min 0,1 C 7,6 C 1,9 km/h (1 Bft)
22.04.2015 01:25 9,5 C 22,4 C 8,3 C 8,8 C 7,5 C 0,0 C 53 % 58 % 0 % 1027,6 hPa 0,0 l/m 1,3 km/h (1 Bft) W 270 0 min 0,4 C 7,5 C 2,1 km/h (1 Bft)
22.04.2015 01:30 9,2 C 22,4 C 8,1 C 8,5 C 7,2 C 0,0 C 53 % 59 % 0 % 1027,6 hPa 0,0 l/m 0,8 km/h (0 Bft) W 270 0 min 0,1 C 7,2 C 0,0 km/h (0 Bft)
22.04.2015 01:35 9,0 C 22,5 C 7,6 C 8,3 C 6,9 C 0,0 C 53 % 60 % 0 % 1027,8 hPa 0,0 l/m 0,5 km/h (0 Bft) O-NO 67 0 min -0,1 C 6,9 C 0,0 km/h (0 Bft)
22.04.2015 01:40 8,7 C 22,5 C 7,3 C 8,0 C 6,5 C 0,0 C 55 % 61 % 0 % 1027,8 hPa 0,0 l/m 0,2 km/h (0 Bft) O-SO 112 0 min 0,2 C 6,5 C 0,0 km/h (0 Bft)
22.04.2015 01:45 8,5 C 22,4 C 7,1 C 7,8 C 6,4 C 0,0 C 55 % 62 % 0 % 1027,8 hPa 0,0 l/m 0,2 km/h (0 Bft) SO 135 0 min -0,0 C 6,4 C 0,0 km/h (0 Bft)
22.04.2015 01:50 8,4 C 22,4 C 6,9 C 7,7 C 6,4 C 0,0 C 56 % 62 % 0 % 1027,8 hPa 0,0 l/m 0,3 km/h (0 Bft) O-NO 67 0 min 0,1 C 6,4 C 0,0 km/h (0 Bft)
22.04.2015 01:55 8,2 C 22,4 C 6,8 C 7,5 C 6,2 C 0,0 C 56 % 62 % 0 % 1027,6 hPa 0,0 l/m 0,3 km/h (0 Bft) O 90 0 min -0,0 C 6,2 C 0,0 km/h (0 Bft)
22.04.2015 02:00 8,0 C 22,4 C 6,4 C 7,3 C 5,9 C 0,0 C 57 % 64 % 0 % 1027,6 hPa 0,0 l/m 0,3 km/h (0 Bft) SO 135 0 min 0,0 C 5,9 C 2,4 km/h (1 Bft)
22.04.2015 02:05 7,9 C 22,4 C 6,2 C 7,2 C 5,9 C 0,0 C 57 % 64 % 0 % 1027,6 hPa 0,0 l/m 0,3 km/h (0 Bft) O-NO 67 0 min -0,1 C 5,9 C 0,0 km/h (0 Bft)
22.04.2015 02:10 7,6 C 22,3 C 5,9 C 7,0 C 5,7 C 0,0 C 58 % 66 % 0 % 1027,6 hPa 0,0 l/m 0,2 km/h (0 Bft) SO 135 0 min -0,1 C 5,7 C 0,0 km/h (0 Bft)
22.04.2015 02:15 7,5 C 22,3 C 5,9 C 6,9 C 5,6 C 0,0 C 59 % 66 % 0 % 1027,3 hPa 0,0 l/m 0,2 km/h (0 Bft) S-SO 157 0 min 0,0 C 5,6 C 0,0 km/h (0 Bft)
22.04.2015 02:20 7,5 C 22,3 C 6,0 C 6,9 C 5,6 C 0,0 C 60 % 67 % 0 % 1027,3 hPa 0,0 l/m 1,0 km/h (0 Bft) SW 225 0 min 0,2 C 5,6 C 6,3 km/h (2 Bft)
22.04.2015 02:25 7,5 C 22,3 C 6,3 C 6,9 C 5,8 C 0,0 C 60 % 67 % 0 % 1027,3 hPa 0,0 l/m 1,8 km/h (1 Bft) W-SW 247 0 min 0,2 C 5,8 C 1,8 km/h (1 Bft)
22.04.2015 02:30 7,6 C 22,2 C 6,3 C 7,0 C 5,9 C 0,0 C 61 % 66 % 0 % 1027,3 hPa 0,0 l/m 2,3 km/h (1 Bft) SW 225 0 min 0,6 C 5,9 C 4,0 km/h (1 Bft)
22.04.2015 02:35 7,6 C 22,2 C 6,4 C 7,0 C 5,9 C 0,0 C 61 % 67 % 0 % 1027,2 hPa 0,0 l/m 2,7 km/h (1 Bft) W-SW 247 0 min 0,6 C 5,9 C 5,6 km/h (1 Bft)
22.04.2015 02:40 7,4 C 22,2 C 6,3 C 6,9 C 6,0 C 0,0 C 61 % 67 % 0 % 1027,2 hPa 0,0 l/m 2,9 km/h (1 Bft) SW 225 0 min 0,4 C 6,0 C 0,0 km/h (0 Bft)
22.04.2015 02:45 7,3 C 22,2 C 6,3 C 6,8 C 5,8 C 0,0 C 61 % 67 % 0 % 1027,2 hPa 0,0 l/m 2,3 km/h (1 Bft) W-SW 247 0 min 0,3 C 5,8 C 2,9 km/h (1 Bft)
22.04.2015 02:50 7,0 C 22,2 C 6,0 C 6,5 C 5,5 C 0,0 C 63 % 67 % 0 % 1027,2 hPa 0,0 l/m 2,3 km/h (1 Bft) W-SW 247 0 min 0,4 C 5,5 C 3,9 km/h (1 Bft)
22.04.2015 02:55 6,9 C 22,1 C 6,0 C 6,4 C 5,4 C 0,0 C 63 % 67 % 0 % 1027,4 hPa 0,0 l/m 2,9 km/h (1 Bft) W 270 0 min 0,4 C 5,4 C 1,8 km/h (1 Bft)
22.04.2015 03:00 6,7 C 22,1 C 5,9 C 6,2 C 5,1 C 0,0 C 63 % 68 % 0 % 1027,4 hPa 0,0 l/m 1,4 km/h (1 Bft) S-SW 202 0 min 0,2 C 5,1 C 2,1 km/h (1 Bft)
22.04.2015 03:05 6,7 C 22,1 C 5,9 C 6,1 C 5,0 C 0,0 C 64 % 69 % 0 % 1027,4 hPa 0,0 l/m 1,4 km/h (1 Bft) W-SW 247 0 min 0,4 C 5,0 C 2,3 km/h (1 Bft)
22.04.2015 03:10 6,5 C 22,1 C 5,9 C 5,9 C 4,8 C 0,0 C 65 % 69 % 0 % 1027,4 hPa 0,0 l/m 1,9 km/h (1 Bft) W-SW 247 0 min 0,4 C 4,8 C 2,6 km/h (1 Bft)
22.04.2015 03:15 6,4 C 22,1 C 5,7 C 5,8 C 4,7 C 0,0 C 65 % 69 % 0 % 1027,4 hPa 0,0 l/m 2,4 km/h (1 Bft) W-SW 247 0 min 0,3 C 4,7 C 9,7 km/h (2 Bft)
22.04.2015 03:20 6,2 C 22,1 C 5,7 C 5,6 C 4,4 C 0,0 C 67 % 70 % 0 % 1027,4 hPa 0,0 l/m 3,5 km/h (1 Bft) S-SO 157 0 min 0,5 C 4,4 C 2,6 km/h (1 Bft)
22.04.2015 03:25 6,1 C 22,2 C 5,6 C 5,5 C 4,2 C 0,0 C 67 % 70 % 0 % 1027,4 hPa 0,0 l/m 3,7 km/h (1 Bft) SW 225 0 min 0,4 C 4,2 C 9,7 km/h (2 Bft)
22.04.2015 03:30 6,0 C 22,1 C 5,5 C 5,5 C 4,4 C 0,0 C 67 % 70 % 0 % 1027,4 hPa 0,0 l/m 1,9 km/h (1 Bft) W-SW 247 0 min 0,3 C 4,4 C 0,0 km/h (0 Bft)
22.04.2015 03:35 5,9 C 22,1 C 5,3 C 5,3 C 4,2 C 0,0 C 69 % 71 % 0 % 1027,3 hPa 0,0 l/m 1,9 km/h (1 Bft) W 270 0 min 0,7 C 4,2 C 3,2 km/h (1 Bft)
22.04.2015 03:40 5,8 C 22,1 C 5,2 C 5,2 C 4,0 C 0,0 C 69 % 72 % 0 % 1027,3 hPa 0,0 l/m 1,4 km/h (1 Bft) SW 225 0 min 0,6 C 4,0 C 1,9 km/h (1 Bft)
22.04.2015 03:45 5,6 C 22,1 C 5,2 C 5,0 C 3,8 C 0,0 C 70 % 73 % 0 % 1027,3 hPa 0,0 l/m 0,8 km/h (0 Bft) W-SW 247 0 min 0,6 C 3,8 C 10,1 km/h (2 Bft)
22.04.2015 03:50 5,5 C 22,1 C 5,0 C 4,9 C 3,6 C 0,0 C 71 % 73 % 0 % 1027,3 hPa 0,0 l/m 0,6 km/h (0 Bft) W-SW 247 0 min 0,7 C 3,6 C 0,0 km/h (0 Bft)
22.04.2015 03:55 5,4 C 22,1 C 5,1 C 4,8 C 3,5 C 0,0 C 71 % 73 % 0 % 1027,4 hPa 0,0 l/m 0,8 km/h (0 Bft) SW 225 0 min 0,6 C 3,5 C 3,4 km/h (1 Bft)
22.04.2015 04:00 5,4 C 22,1 C 4,9 C 4,8 C 3,6 C 0,0 C 73 % 75 % 0 % 1027,4 hPa 0,0 l/m 2,1 km/h (1 Bft) S 180 0 min 1,0 C 3,6 C 2,4 km/h (1 Bft)
22.04.2015 04:05 5,5 C 22,1 C 4,8 C 4,9 C 3,6 C 0,0 C 74 % 75 % 0 % 1027,4 hPa 0,0 l/m 2,4 km/h (1 Bft) O 90 0 min 1,2 C 3,6 C 2,9 km/h (1 Bft)
22.04.2015 04:10 5,3 C 22,1 C 4,9 C 4,7 C 3,5 C 0,0 C 74 % 75 % 0 % 1027,4 hPa 0,0 l/m 1,6 km/h (1 Bft) O-SO 112 0 min 1,0 C 3,5 C 0,0 km/h (0 Bft)
22.04.2015 04:15 5,2 C 22,1 C 4,8 C 4,6 C 3,4 C 0,0 C 75 % 77 % 0 % 1027,3 hPa 0,0 l/m 2,3 km/h (1 Bft) N 360 0 min 1,1 C 3,4 C 9,5 km/h (2 Bft)
22.04.2015 04:20 5,1 C 22,1 C 4,7 C 4,5 C 3,4 C 0,0 C 75 % 77 % 0 % 1027,3 hPa 0,0 l/m 1,6 km/h (1 Bft) SW 225 0 min 1,0 C 3,4 C 3,4 km/h (1 Bft)
22.04.2015 04:25 5,1 C 22,1 C 4,6 C 4,5 C 3,3 C 0,0 C 75 % 77 % 0 % 1027,3 hPa 0,0 l/m 1,4 km/h (1 Bft) W-NW 292 0 min 1,0 C 3,3 C 3,2 km/h (1 Bft)
22.04.2015 04:30 4,9 C 22,1 C 4,5 C 4,4 C 3,3 C 0,0 C 77 % 78 % 0 % 1027,3 hPa 0,0 l/m 1,8 km/h (1 Bft) W 270 0 min 1,2 C 3,3 C 6,9 km/h (2 Bft)
22.04.2015 04:35 4,7 C 22,1 C 4,5 C 4,2 C 3,3 C 0,0 C 77 % 78 % 0 % 1027,8 hPa 0,0 l/m 2,7 km/h (1 Bft) S 180 0 min 1,0 C 3,3 C 4,7 km/h (1 Bft)
22.04.2015 04:40 4,4 C 22,1 C 4,8 C 4,0 C 3,3 C 0,0 C 79 % 79 % 0 % 1027,8 hPa 0,0 l/m 3,5 km/h (1 Bft) W 270 0 min 1,1 C 3,3 C 6,9 km/h (2 Bft)
22.04.2015 04:45 4,4 C 22,1 C 4,9 C 4,1 C 3,4 C 0,0 C 79 % 79 % 0 % 1027,8 hPa 0,0 l/m 4,0 km/h (1 Bft) S-SW 202 0 min 1,1 C 3,4 C 12,9 km/h (3 Bft)
22.04.2015 04:50 4,4 C 22,1 C 5,1 C 4,4 C 4,3 C 0,0 C 79 % 79 % 0 % 1027,8 hPa 0,0 l/m 3,2 km/h (1 Bft) W-SW 247 0 min 1,1 C 4,3 C 0,0 km/h (0 Bft)
22.04.2015 04:55 4,4 C 22,1 C 5,3 C 4,6 C 4,6 C 0,2 C 79 % 79 % 0 % 1027,4 hPa 0,0 l/m 2,1 km/h (1 Bft) NW 315 0 min 1,1 C 4,6 C 2,3 km/h (1 Bft)
22.04.2015 05:00 4,4 C 22,0 C 5,3 C 4,9 C 4,9 C 0,5 C 80 % 79 % 0 % 1027,4 hPa 0,0 l/m 2,4 km/h (1 Bft) W 270 0 min 1,3 C 4,9 C 4,3 km/h (1 Bft)
22.04.2015 05:05 4,4 C 22,0 C 5,4 C 5,0 C 5,0 C 0,6 C 79 % 79 % 0 % 1027,4 hPa 0,0 l/m 2,1 km/h (1 Bft) W-SW 247 0 min 1,1 C 5,0 C 2,9 km/h (1 Bft)
22.04.2015 05:10 4,4 C 22,0 C 5,5 C 5,0 C 5,0 C 0,6 C 80 % 80 % 0 % 1027,4 hPa 0,0 l/m 1,4 km/h (1 Bft) W-SW 247 0 min 1,3 C 5,0 C 2,4 km/h (1 Bft)
22.04.2015 05:15 4,4 C 22,0 C 5,4 C 5,1 C 5,1 C 0,7 C 80 % 79 % 0 % 1027,3 hPa 0,0 l/m 1,4 km/h (1 Bft) W-SW 247 0 min 1,3 C 5,1 C 0,0 km/h (0 Bft)
22.04.2015 05:20 4,5 C 21,9 C 5,5 C 5,1 C 5,1 C 0,6 C 79 % 79 % 0 % 1027,3 hPa 0,0 l/m 1,6 km/h (1 Bft) S 180 0 min 1,2 C 5,1 C 1,9 km/h (1 Bft)
22.04.2015 05:25 4,5 C 21,9 C 5,5 C 5,1 C 5,1 C 0,6 C 80 % 80 % 0 % 1027,3 hPa 0,0 l/m 2,1 km/h (1 Bft) W-NW 292 0 min 1,4 C 5,1 C 7,9 km/h (2 Bft)
22.04.2015 05:30 4,7 C 21,8 C 5,5 C 5,2 C 5,2 C 0,5 C 79 % 79 % 0 % 1027,3 hPa 0,0 l/m 2,4 km/h (1 Bft) N-NO 22 0 min 1,4 C 5,2 C 0,0 km/h (0 Bft)
22.04.2015 05:35 4,7 C 21,8 C 5,6 C 5,2 C 5,2 C 0,5 C 79 % 80 % 0 % 1027,8 hPa 0,0 l/m 3,1 km/h (1 Bft) S 180 0 min 1,4 C 5,2 C 1,6 km/h (1 Bft)
22.04.2015 05:40 4,6 C 21,8 C 5,6 C 5,2 C 5,2 C 0,6 C 79 % 79 % 0 % 1027,8 hPa 0,0 l/m 2,9 km/h (1 Bft) W-SW 247 0 min 1,3 C 5,2 C 4,3 km/h (1 Bft)
22.04.2015 05:45 4,7 C 21,8 C 5,6 C 5,2 C 5,2 C 0,5 C 79 % 79 % 0 % 1027,8 hPa 0,0 l/m 2,4 km/h (1 Bft) S 180 0 min 1,4 C 5,2 C 3,2 km/h (1 Bft)
22.04.2015 05:50 4,8 C 21,7 C 5,6 C 5,2 C 5,2 C 0,4 C 79 % 79 % 0 % 1027,8 hPa 0,0 l/m 1,9 km/h (1 Bft) S 180 0 min 1,5 C 5,2 C 4,3 km/h (1 Bft)
22.04.2015 05:55 4,8 C 21,7 C 5,6 C 5,2 C 5,2 C 0,4 C 79 % 79 % 0 % 1027,3 hPa 0,0 l/m 1,9 km/h (1 Bft) S 180 0 min 1,5 C 5,2 C 3,7 km/h (1 Bft)
22.04.2015 06:00 4,9 C 21,7 C 5,6 C 5,2 C 5,2 C 0,3 C 79 % 78 % 0 % 1027,3 hPa 0,0 l/m 2,6 km/h (1 Bft) W 270 0 min 1,6 C 5,2 C 2,9 km/h (1 Bft)
22.04.2015 06:05 4,9 C 21,7 C 5,6 C 5,2 C 5,2 C 0,3 C 78 % 78 % 0 % 1027,3 hPa 0,0 l/m 3,1 km/h (1 Bft) W-SW 247 0 min 1,4 C 5,2 C 6,8 km/h (2 Bft)
22.04.2015 06:10 4,9 C 21,6 C 5,6 C 5,2 C 5,2 C 0,3 C 78 % 78 % 0 % 1027,3 hPa 0,0 l/m 3,2 km/h (1 Bft) W 270 0 min 1,4 C 5,2 C 2,6 km/h (1 Bft)
22.04.2015 06:15 4,9 C 21,6 C 5,6 C 5,1 C 5,1 C 0,2 C 78 % 78 % 5 % 1027,4 hPa 0,0 l/m 3,4 km/h (1 Bft) W-SW 247 0 min 1,4 C 5,1 C 3,2 km/h (1 Bft)
22.04.2015 06:20 4,9 C 21,6 C 5,6 C 5,2 C 5,2 C 0,3 C 78 % 78 % 8 % 1027,4 hPa 0,0 l/m 3,2 km/h (1 Bft) W-SW 247 0 min 1,4 C 5,2 C 4,5 km/h (1 Bft)
22.04.2015 06:25 4,9 C 21,6 C 5,6 C 5,2 C 5,2 C 0,3 C 78 % 78 % 8 % 1027,4 hPa 0,0 l/m 2,9 km/h (1 Bft) W 270 0 min 1,4 C 5,2 C 2,6 km/h (1 Bft)
22.04.2015 06:30 4,9 C 21,6 C 5,6 C 5,3 C 5,3 C 0,4 C 79 % 78 % 11 % 1027,4 hPa 0,0 l/m 2,6 km/h (1 Bft) W-SW 247 0 min 1,6 C 5,3 C 4,5 km/h (1 Bft)
22.04.2015 06:35 4,9 C 21,6 C 5,6 C 5,3 C 5,3 C 0,4 C 79 % 78 % 11 % 1027,3 hPa 0,0 l/m 3,1 km/h (1 Bft) S 180 0 min 1,6 C 5,3 C 3,9 km/h (1 Bft)
22.04.2015 06:40 4,9 C 21,5 C 5,6 C 5,3 C 5,3 C 0,4 C 79 % 78 % 11 % 1027,3 hPa 0,0 l/m 3,1 km/h (1 Bft) W-SW 247 0 min 1,6 C 5,3 C 4,2 km/h (1 Bft)
22.04.2015 06:45 4,9 C 21,5 C 5,6 C 5,3 C 5,3 C 0,4 C 79 % 79 % 11 % 1027,3 hPa 0,0 l/m 2,6 km/h (1 Bft) W-SW 247 0 min 1,6 C 5,3 C 1,9 km/h (1 Bft)
22.04.2015 06:50 4,9 C 21,5 C 5,6 C 5,3 C 5,3 C 0,4 C 79 % 79 % 11 % 1027,3 hPa 0,0 l/m 2,4 km/h (1 Bft) N-NW 337 0 min 1,6 C 5,3 C 2,7 km/h (1 Bft)
22.04.2015 06:55 4,9 C 21,5 C 5,6 C 5,4 C 5,4 C 0,5 C 79 % 79 % 13 % 1027,3 hPa 0,0 l/m 2,6 km/h (1 Bft) W-NW 292 0 min 1,6 C 5,4 C 2,9 km/h (1 Bft)
22.04.2015 07:00 4,9 C 21,5 C 5,6 C 5,4 C 5,4 C 0,5 C 79 % 79 % 13 % 1027,3 hPa 0,0 l/m 1,8 km/h (1 Bft) S-SO 157 0 min 1,6 C 5,4 C 2,1 km/h (1 Bft)
22.04.2015 07:05 4,9 C 21,5 C 5,7 C 5,4 C 5,4 C 0,5 C 79 % 79 % 13 % 1027,3 hPa 0,0 l/m 1,8 km/h (1 Bft) W-SW 247 0 min 1,6 C 5,4 C 3,1 km/h (1 Bft)
22.04.2015 07:10 4,9 C 21,5 C 5,7 C 5,4 C 5,4 C 0,5 C 79 % 79 % 13 % 1027,3 hPa 0,0 l/m 1,8 km/h (1 Bft) W-SW 247 0 min 1,6 C 5,4 C 1,8 km/h (1 Bft)
22.04.2015 07:15 4,9 C 21,5 C 5,6 C 5,4 C 5,4 C 0,5 C 79 % 79 % 13 % 1027,5 hPa 0,0 l/m 1,4 km/h (1 Bft) W-SW 247 0 min 1,6 C 5,4 C 1,6 km/h (1 Bft)
22.04.2015 07:20 4,9 C 21,4 C 5,7 C 5,4 C 5,4 C 0,5 C 79 % 79 % 13 % 1027,5 hPa 0,0 l/m 1,8 km/h (1 Bft) W-SW 247 0 min 1,6 C 5,4 C 5,0 km/h (1 Bft)
22.04.2015 07:25 4,8 C 21,4 C 5,8 C 5,4 C 5,4 C 0,6 C 79 % 79 % 16 % 1027,5 hPa 0,0 l/m 1,9 km/h (1 Bft) W 270 0 min 1,5 C 5,4 C 1,9 km/h (1 Bft)
22.04.2015 07:30 4,9 C 21,4 C 5,9 C 5,5 C 5,5 C 0,6 C 79 % 79 % 16 % 1027,5 hPa 0,0 l/m 2,1 km/h (1 Bft) W-SW 247 0 min 1,6 C 5,5 C 1,8 km/h (1 Bft)
22.04.2015 07:35 4,9 C 21,4 C 5,8 C 5,5 C 5,5 C 0,6 C 79 % 79 % 16 % 1027,8 hPa 0,0 l/m 1,8 km/h (1 Bft) W-SW 247 0 min 1,6 C 5,5 C 2,9 km/h (1 Bft)
22.04.2015 07:40 5,0 C 21,4 C 5,9 C 5,6 C 5,6 C 0,6 C 79 % 79 % 16 % 1027,8 hPa 0,0 l/m 1,6 km/h (1 Bft) W-SW 247 0 min 1,7 C 5,6 C 3,2 km/h (1 Bft)
22.04.2015 07:45 5,0 C 21,4 C 6,0 C 5,7 C 5,7 C 0,7 C 80 % 79 % 18 % 1027,8 hPa 0,0 l/m 1,9 km/h (1 Bft) S 180 0 min 1,8 C 5,7 C 4,8 km/h (1 Bft)
22.04.2015 07:50 4,9 C 21,4 C 6,1 C 5,7 C 5,7 C 0,8 C 80 % 79 % 21 % 1027,8 hPa 0,0 l/m 2,9 km/h (1 Bft) W-SW 247 0 min 1,7 C 5,7 C 4,2 km/h (1 Bft)
22.04.2015 07:55 4,9 C 21,4 C 6,0 C 5,4 C 5,4 C 0,5 C 80 % 79 % 13 % 1027,6 hPa 0,0 l/m 3,9 km/h (1 Bft) W-SW 247 0 min 1,7 C 5,4 C 5,0 km/h (1 Bft)
22.04.2015 08:00 5,0 C 21,3 C 6,1 C 5,8 C 5,8 C 0,8 C 80 % 79 % 21 % 1027,6 hPa 0,0 l/m 3,4 km/h (1 Bft) W-SW 247 0 min 1,8 C 5,8 C 3,7 km/h (1 Bft)
22.04.2015 08:05 5,1 C 21,3 C 6,2 C 5,9 C 5,9 C 0,8 C 80 % 79 % 21 % 1027,6 hPa 0,0 l/m 3,1 km/h (1 Bft) SW 225 0 min 1,9 C 5,9 C 2,7 km/h (1 Bft)
22.04.2015 08:10 5,0 C 21,3 C 6,3 C 6,0 C 6,0 C 1,0 C 80 % 79 % 26 % 1027,6 hPa 0,0 l/m 3,1 km/h (1 Bft) W-SW 247 0 min 1,8 C 6,0 C 4,7 km/h (1 Bft)
22.04.2015 08:15 5,1 C 21,3 C 6,3 C 6,1 C 6,1 C 1,0 C 80 % 79 % 26 % 1027,6 hPa 0,0 l/m 3,4 km/h (1 Bft) SW 225 0 min 1,9 C 6,1 C 8,5 km/h (2 Bft)
22.04.2015 08:20 5,2 C 21,2 C 6,4 C 5,8 C 5,8 C 0,6 C 80 % 79 % 16 % 1027,6 hPa 0,0 l/m 4,2 km/h (1 Bft) W-SW 247 0 min 2,0 C 5,8 C 5,8 km/h (2 Bft)
22.04.2015 08:25 5,2 C 21,2 C 6,7 C 5,8 C 5,8 C 0,6 C 80 % 79 % 16 % 1027,6 hPa 0,0 l/m 4,2 km/h (1 Bft) W-SW 247 0 min 2,0 C 5,8 C 4,8 km/h (1 Bft)
22.04.2015 08:30 5,5 C 21,2 C 6,9 C 6,4 C 6,4 C 0,9 C 79 % 78 % 24 % 1027,6 hPa 0,0 l/m 3,9 km/h (1 Bft) W 270 0 min 2,2 C 6,4 C 4,7 km/h (1 Bft)
22.04.2015 08:35 5,5 C 21,2 C 6,9 C 6,9 C 6,9 C 1,4 C 79 % 78 % 37 % 1027,5 hPa 0,0 l/m 3,4 km/h (1 Bft) W 270 0 min 2,2 C 6,9 C 4,8 km/h (1 Bft)
22.04.2015 08:40 5,7 C 21,2 C 7,2 C 7,2 C 7,2 C 1,5 C 79 % 77 % 39 % 1027,5 hPa 0,0 l/m 3,2 km/h (1 Bft) SW 225 0 min 2,3 C 7,2 C 5,3 km/h (1 Bft)
22.04.2015 08:45 5,9 C 21,1 C 7,1 C 6,8 C 6,8 C 0,9 C 78 % 76 % 24 % 1027,5 hPa 0,0 l/m 4,0 km/h (1 Bft) SW 225 0 min 2,4 C 6,8 C 5,3 km/h (1 Bft)
22.04.2015 08:50 5,9 C 21,1 C 7,0 C 6,7 C 6,7 C 0,8 C 78 % 76 % 21 % 1027,5 hPa 0,0 l/m 4,0 km/h (1 Bft) SW 225 0 min 2,4 C 6,7 C 0,0 km/h (0 Bft)
22.04.2015 08:55 5,9 C 21,1 C 7,1 C 7,0 C 7,0 C 1,1 C 78 % 76 % 29 % 1027,6 hPa 0,0 l/m 3,2 km/h (1 Bft) W-SW 247 0 min 2,4 C 7,0 C 3,4 km/h (1 Bft)
22.04.2015 09:00 6,0 C 21,1 C 7,2 C 7,2 C 7,2 C 1,2 C 77 % 76 % 32 % 1027,6 hPa 0,0 l/m 2,9 km/h (1 Bft) W-SW 247 0 min 2,3 C 7,2 C 2,9 km/h (1 Bft)
22.04.2015 09:05 6,1 C 21,0 C 7,3 C 7,2 C 7,2 C 1,1 C 77 % 76 % 29 % 1027,6 hPa 0,0 l/m 2,7 km/h (1 Bft) SW 225 0 min 2,4 C 7,2 C 2,1 km/h (1 Bft)
22.04.2015 09:10 6,2 C 21,0 C 7,5 C 7,5 C 7,5 C 1,3 C 77 % 76 % 34 % 1027,6 hPa 0,0 l/m 2,4 km/h (1 Bft) W-SW 247 0 min 2,5 C 7,5 C 3,9 km/h (1 Bft)
22.04.2015 09:15 6,3 C 21,0 C 7,6 C 7,5 C 7,5 C 1,2 C 77 % 75 % 32 % 1027,4 hPa 0,0 l/m 2,9 km/h (1 Bft) W-SW 247 0 min 2,6 C 7,5 C 5,3 km/h (1 Bft)
22.04.2015 09:20 6,4 C 20,9 C 7,9 C 7,6 C 7,6 C 1,2 C 76 % 74 % 32 % 1027,4 hPa 0,0 l/m 3,9 km/h (1 Bft) SW 225 0 min 2,5 C 7,6 C 7,9 km/h (2 Bft)
22.04.2015 09:25 6,4 C 20,9 C 7,9 C 7,5 C 7,5 C 1,1 C 75 % 74 % 29 % 1027,4 hPa 0,0 l/m 4,2 km/h (1 Bft) W-SW 247 0 min 2,3 C 7,5 C 4,5 km/h (1 Bft)
22.04.2015 09:30 6,5 C 20,9 C 8,3 C 7,7 C 7,7 C 1,2 C 75 % 73 % 32 % 1027,4 hPa 0,0 l/m 4,8 km/h (1 Bft) W-SW 247 0 min 2,4 C 7,2 C 6,3 km/h (2 Bft)
22.04.2015 09:35 6,6 C 20,9 C 8,5 C 8,1 C 8,1 C 1,5 C 75 % 73 % 39 % 1027,4 hPa 0,0 l/m 4,8 km/h (1 Bft) S 180 0 min 2,5 C 7,7 C 5,5 km/h (1 Bft)
22.04.2015 09:40 6,8 C 20,9 C 8,9 C 9,0 C 9,0 C 2,2 C 75 % 72 % 58 % 1027,4 hPa 0,0 l/m 4,8 km/h (1 Bft) W-SW 247 0 min 2,7 C 8,7 C 3,4 km/h (1 Bft)
22.04.2015 09:45 7,1 C 20,9 C 9,2 C 9,4 C 9,4 C 2,3 C 74 % 71 % 61 % 1027,4 hPa 0,0 l/m 5,1 km/h (1 Bft) W-SW 247 0 min 2,8 C 9,0 C 4,7 km/h (1 Bft)
22.04.2015 09:50 7,1 C 20,9 C 9,5 C 9,4 C 9,4 C 2,3 C 73 % 70 % 61 % 1027,4 hPa 0,0 l/m 6,0 km/h (2 Bft) W-SW 247 0 min 2,6 C 8,8 C 11,4 km/h (2 Bft)
22.04.2015 09:55 7,1 C 20,9 C 9,5 C 9,3 C 9,3 C 2,2 C 73 % 69 % 58 % 1027,6 hPa 0,0 l/m 6,4 km/h (2 Bft) W-SW 247 0 min 2,6 C 8,6 C 7,1 km/h (2 Bft)
22.04.2015 10:00 7,2 C 20,9 C 9,4 C 9,6 C 9,6 C 2,4 C 73 % 68 % 63 % 1027,6 hPa 0,0 l/m 5,6 km/h (1 Bft) W-SW 247 0 min 2,7 C 9,1 C 3,7 km/h (1 Bft)
22.04.2015 10:05 7,2 C 20,9 C 9,3 C 9,4 C 9,4 C 2,2 C 73 % 68 % 58 % 1027,6 hPa 0,0 l/m 5,0 km/h (1 Bft) SW 225 0 min 2,7 C 9,1 C 3,9 km/h (1 Bft)
22.04.2015 10:10 7,2 C 20,9 C 9,3 C 9,4 C 9,4 C 2,2 C 73 % 69 % 58 % 1027,6 hPa 0,0 l/m 4,2 km/h (1 Bft) O 90 0 min 2,7 C 9,4 C 1,8 km/h (1 Bft)
22.04.2015 10:15 7,2 C 20,9 C 9,4 C 9,5 C 9,5 C 2,3 C 73 % 69 % 61 % 1027,8 hPa 0,0 l/m 3,7 km/h (1 Bft) W-SW 247 0 min 2,7 C 9,5 C 5,5 km/h (1 Bft)
22.04.2015 10:20 7,3 C 20,9 C 9,6 C 9,5 C 9,5 C 2,2 C 73 % 69 % 58 % 1027,8 hPa 0,0 l/m 3,7 km/h (1 Bft) SW 225 0 min 2,8 C 9,5 C 7,4 km/h (2 Bft)
22.04.2015 10:25 7,3 C 20,9 C 9,9 C 9,4 C 9,4 C 2,1 C 73 % 68 % 55 % 1027,8 hPa 0,0 l/m 5,1 km/h (1 Bft) SW 225 0 min 2,8 C 9,0 C 9,5 km/h (2 Bft)
22.04.2015 10:30 7,5 C 20,9 C 10,3 C 9,9 C 9,9 C 2,4 C 73 % 68 % 63 % 1027,8 hPa 0,0 l/m 5,6 km/h (1 Bft) W-SW 247 0 min 3,0 C 9,5 C 3,2 km/h (1 Bft)
22.04.2015 10:35 7,7 C 20,9 C 10,7 C 10,6 C 10,6 C 2,9 C 73 % 67 % 76 % 1027,1 hPa 0,0 l/m 5,0 km/h (1 Bft) W-NW 292 0 min 3,2 C 10,6 C 6,0 km/h (2 Bft)
22.04.2015 10:40 7,8 C 20,9 C 11,0 C 11,3 C 11,3 C 3,5 C 72 % 66 % 92 % 1027,1 hPa 0,0 l/m 4,5 km/h (1 Bft) W-SW 247 5 min 3,1 C 11,3 C 8,7 km/h (2 Bft)
22.04.2015 10:45 7,9 C 20,8 C 11,1 C 11,5 C 11,5 C 3,6 C 72 % 66 % 95 % 1027,1 hPa 0,0 l/m 4,0 km/h (1 Bft) W-SW 247 5 min 3,2 C 11,5 C 6,4 km/h (2 Bft)
22.04.2015 10:50 7,8 C 20,8 C 10,2 C 10,8 C 10,8 C 3,0 C 71 % 65 % 79 % 1027,1 hPa 0,0 l/m 3,5 km/h (1 Bft) S-SW 202 0 min 2,9 C 10,8 C 3,5 km/h (1 Bft)
22.04.2015 10:55 7,9 C 20,8 C 10,3 C 10,4 C 10,4 C 2,5 C 72 % 66 % 66 % 1027,3 hPa 0,0 l/m 3,4 km/h (1 Bft) W-SW 247 0 min 3,2 C 10,4 C 4,8 km/h (1 Bft)
22.04.2015 11:00 7,9 C 20,8 C 10,3 C 10,3 C 10,3 C 2,4 C 72 % 66 % 63 % 1027,3 hPa 0,0 l/m 3,5 km/h (1 Bft) SW 225 0 min 3,2 C 10,3 C 4,5 km/h (1 Bft)
22.04.2015 11:05 7,9 C 20,8 C 10,4 C 10,4 C 10,4 C 2,5 C 72 % 66 % 66 % 1027,3 hPa 0,0 l/m 4,0 km/h (1 Bft) SW 225 0 min 3,2 C 10,4 C 3,7 km/h (1 Bft)
22.04.2015 11:10 8,0 C 20,8 C 10,3 C 10,4 C 10,4 C 2,4 C 71 % 66 % 63 % 1027,3 hPa 0,0 l/m 3,1 km/h (1 Bft) NO 45 0 min 3,1 C 10,4 C 0,0 km/h (0 Bft)
22.04.2015 11:15 8,1 C 20,8 C 10,3 C 10,5 C 10,5 C 2,4 C 71 % 66 % 63 % 1027,6 hPa 0,0 l/m 2,4 km/h (1 Bft) NW 315 0 min 3,2 C 10,5 C 0,0 km/h (0 Bft)
22.04.2015 11:20 8,2 C 20,8 C 10,5 C 10,8 C 10,8 C 2,6 C 71 % 66 % 68 % 1027,6 hPa 0,0 l/m 1,9 km/h (1 Bft) S-SW 202 0 min 3,3 C 10,8 C 8,4 km/h (2 Bft)
22.04.2015 11:25 8,2 C 20,8 C 10,5 C 10,8 C 10,8 C 2,6 C 70 % 65 % 68 % 1027,6 hPa 0,0 l/m 3,2 km/h (1 Bft) W-SW 247 0 min 3,1 C 10,8 C 7,9 km/h (2 Bft)
22.04.2015 11:30 8,1 C 20,7 C 10,7 C 11,0 C 11,0 C 2,9 C 70 % 66 % 76 % 1027,6 hPa 0,0 l/m 3,5 km/h (1 Bft) W-SW 247 0 min 3,0 C 11,0 C 3,7 km/h (1 Bft)
22.04.2015 11:35 8,3 C 20,7 C 11,1 C 11,4 C 11,4 C 3,1 C 71 % 66 % 82 % 1027,6 hPa 0,0 l/m 2,3 km/h (1 Bft) W 270 0 min 3,4 C 11,4 C 2,7 km/h (1 Bft)
22.04.2015 11:40 8,5 C 20,7 C 10,8 C 11,5 C 11,5 C 3,0 C 70 % 65 % 79 % 1027,6 hPa 0,0 l/m 3,1 km/h (1 Bft) W-SW 247 0 min 3,3 C 11,5 C 11,3 km/h (2 Bft)
22.04.2015 11:45 8,4 C 20,7 C 10,7 C 11,0 C 11,0 C 2,6 C 69 % 64 % 68 % 1027,6 hPa 0,0 l/m 3,9 km/h (1 Bft) W-SW 247 0 min 3,0 C 11,0 C 6,6 km/h (2 Bft)
22.04.2015 11:50 8,3 C 20,8 C 10,4 C 10,1 C 10,1 C 1,8 C 69 % 64 % 47 % 1027,6 hPa 0,0 l/m 4,8 km/h (1 Bft) W 270 0 min 3,0 C 10,1 C 4,0 km/h (1 Bft)
22.04.2015 11:55 8,3 C 20,8 C 10,1 C 9,9 C 9,9 C 1,6 C 69 % 65 % 42 % 1027,3 hPa 0,0 l/m 4,3 km/h (1 Bft) W-SW 247 0 min 3,0 C 9,9 C 5,8 km/h (2 Bft)
22.04.2015 12:00 8,1 C 20,8 C 10,0 C 9,5 C 9,5 C 1,4 C 69 % 65 % 37 % 1027,3 hPa 0,0 l/m 4,8 km/h (1 Bft) W 270 0 min 2,8 C 9,3 C 5,6 km/h (1 Bft)
22.04.2015 12:05 8,0 C 20,8 C 9,9 C 9,3 C 9,3 C 1,3 C 69 % 66 % 34 % 1027,3 hPa 0,0 l/m 4,7 km/h (1 Bft) W-SW 247 0 min 2,7 C 9,1 C 3,4 km/h (1 Bft)
22.04.2015 12:10 8,1 C 20,8 C 9,9 C 9,5 C 9,5 C 1,4 C 70 % 66 % 37 % 1027,3 hPa 0,0 l/m 2,1 km/h (1 Bft) W-SW 247 0 min 3,0 C 9,5 C 0,0 km/h (0 Bft)
22.04.2015 12:15 8,1 C 20,8 C 9,7 C 9,5 C 9,5 C 1,4 C 69 % 66 % 37 % 1026,9 hPa 0,0 l/m 1,4 km/h (1 Bft) S-SW 202 0 min 2,8 C 9,5 C 3,2 km/h (1 Bft)
22.04.2015 12:20 8,0 C 20,8 C 9,5 C 9,1 C 9,1 C 1,1 C 69 % 66 % 29 % 1026,9 hPa 0,0 l/m 2,9 km/h (1 Bft) S-SW 202 0 min 2,7 C 9,1 C 4,0 km/h (1 Bft)
22.04.2015 12:25 8,0 C 20,8 C 9,2 C 8,9 C 8,9 C 0,9 C 70 % 67 % 24 % 1026,9 hPa 0,0 l/m 3,2 km/h (1 Bft) SW 225 0 min 2,9 C 8,9 C 2,9 km/h (1 Bft)
22.04.2015 12:30 7,9 C 20,7 C 9,1 C 8,7 C 8,7 C 0,8 C 70 % 67 % 21 % 1026,9 hPa 0,0 l/m 1,6 km/h (1 Bft) O-SO 112 0 min 2,8 C 8,7 C 2,1 km/h (1 Bft)
22.04.2015 12:35 7,9 C 20,7 C 8,9 C 8,6 C 8,6 C 0,7 C 70 % 67 % 18 % 1026,8 hPa 0,0 l/m 0,8 km/h (0 Bft) NO 45 0 min 2,8 C 8,6 C 1,6 km/h (1 Bft)
22.04.2015 12:40 7,9 C 20,7 C 8,9 C 8,5 C 8,5 C 0,6 C 70 % 68 % 16 % 1026,8 hPa 0,0 l/m 0,8 km/h (0 Bft) N-NO 22 0 min 2,8 C 8,5 C 0,0 km/h (0 Bft)
22.04.2015 12:45 7,9 C 20,7 C 8,8 C 8,5 C 8,5 C 0,6 C 70 % 69 % 16 % 1026,8 hPa 0,0 l/m 0,8 km/h (0 Bft) N 360 0 min 2,8 C 8,5 C 0,0 km/h (0 Bft)
22.04.2015 12:50 7,9 C 20,7 C 8,8 C 8,5 C 8,5 C 0,6 C 70 % 69 % 16 % 1026,8 hPa 0,0 l/m 1,0 km/h (0 Bft) W-SW 247 0 min 2,8 C 8,5 C 3,5 km/h (1 Bft)
22.04.2015 12:55 7,9 C 20,7 C 8,8 C 8,5 C 8,5 C 0,6 C 70 % 69 % 16 % 1026,8 hPa 0,0 l/m 1,1 km/h (1 Bft) W-SW 247 0 min 2,8 C 8,5 C 2,1 km/h (1 Bft)
22.04.2015 13:00 7,9 C 20,7 C 8,8 C 8,6 C 8,6 C 0,7 C 70 % 69 % 18 % 1026,8 hPa 0,0 l/m 0,8 km/h (0 Bft) W-SW 247 0 min 2,8 C 8,6 C 0,0 km/h (0 Bft)
22.04.2015 13:05 7,9 C 20,7 C 8,8 C 8,6 C 8,6 C 0,7 C 70 % 69 % 18 % 1026,8 hPa 0,0 l/m 1,0 km/h (0 Bft) NW 315 0 min 2,8 C 8,6 C 1,8 km/h (1 Bft)
22.04.2015 13:10 7,9 C 20,7 C 8,7 C 8,5 C 8,5 C 0,6 C 70 % 70 % 16 % 1026,8 hPa 0,0 l/m 1,1 km/h (1 Bft) W-SW 247 0 min 2,8 C 8,5 C 0,0 km/h (0 Bft)
22.04.2015 13:15 7,9 C 20,7 C 8,7 C 8,5 C 8,5 C 0,6 C 70 % 70 % 16 % 1026,7 hPa 0,0 l/m 0,5 km/h (0 Bft) O-SO 112 0 min 2,8 C 8,5 C 0,0 km/h (0 Bft)
22.04.2015 13:20 7,9 C 20,7 C 8,4 C 8,4 C 8,4 C 0,5 C 71 % 70 % 13 % 1026,7 hPa 0,0 l/m 0,8 km/h (0 Bft) N-NO 22 0 min 3,0 C 8,4 C 3,5 km/h (1 Bft)
22.04.2015 13:25 7,9 C 20,7 C 8,3 C 8,2 C 8,2 C 0,3 C 71 % 70 % 8 % 1026,7 hPa 0,0 l/m 2,3 km/h (1 Bft) NW 315 0 min 3,0 C 8,2 C 3,9 km/h (1 Bft)
22.04.2015 13:30 7,7 C 20,7 C 8,1 C 7,9 C 7,9 C 0,2 C 72 % 72 % 5 % 1026,7 hPa 0,0 l/m 2,9 km/h (1 Bft) N-NW 337 0 min 3,0 C 7,9 C 3,2 km/h (1 Bft)
22.04.2015 13:35 7,6 C 20,7 C 8,0 C 7,7 C 7,7 C 0,1 C 72 % 72 % 3 % 1027,0 hPa 0,0 l/m 2,7 km/h (1 Bft) N-NO 22 0 min 2,9 C 7,7 C 3,1 km/h (1 Bft)
22.04.2015 13:40 7,6 C 20,7 C 8,1 C 7,6 C 7,6 C 0,0 C 73 % 72 % 0 % 1027,0 hPa 0,0 l/m 1,4 km/h (1 Bft) NW 315 0 min 3,1 C 7,6 C 0,0 km/h (0 Bft)
22.04.2015 13:45 7,5 C 20,7 C 8,0 C 7,7 C 7,7 C 0,2 C 73 % 73 % 5 % 1027,0 hPa 0,0 l/m 0,8 km/h (0 Bft) W 270 0 min 3,0 C 7,7 C 0,0 km/h (0 Bft)
22.04.2015 13:50 7,6 C 20,7 C 8,1 C 7,7 C 7,7 C 0,1 C 73 % 73 % 3 % 1027,0 hPa 0,0 l/m 0,3 km/h (0 Bft) NO 45 0 min 3,1 C 7,7 C 1,8 km/h (1 Bft)
22.04.2015 13:55 7,6 C 20,7 C 8,1 C 7,8 C 7,8 C 0,2 C 73 % 73 % 5 % 1026,6 hPa 0,0 l/m 0,2 km/h (0 Bft) NW 315 0 min 3,1 C 7,8 C 0,0 km/h (0 Bft)
22.04.2015 14:00 7,6 C 20,7 C 8,2 C 8,0 C 8,0 C 0,4 C 73 % 73 % 11 % 1026,6 hPa 0,0 l/m 0,0 km/h (0 Bft) NO 45 0 min 3,1 C 8,0 C 0,0 km/h (0 Bft)
22.04.2015 14:05 7,7 C 20,7 C 8,3 C 8,3 C 8,3 C 0,6 C 73 % 73 % 16 % 1026,6 hPa 0,0 l/m 0,0 km/h (0 Bft) W-SW 247 0 min 3,2 C 8,3 C 0,0 km/h (0 Bft)
22.04.2015 14:10 7,7 C 20,7 C 8,9 C 9,0 C 9,0 C 1,3 C 72 % 73 % 34 % 1026,6 hPa 0,0 l/m 0,8 km/h (0 Bft) S 180 0 min 3,0 C 9,0 C 2,6 km/h (1 Bft)
22.04.2015 14:15 7,6 C 20,7 C 9,1 C 9,4 C 9,4 C 1,8 C 72 % 72 % 47 % 1026,4 hPa 0,0 l/m 1,8 km/h (1 Bft) S-SW 202 0 min 2,9 C 9,4 C 3,5 km/h (1 Bft)
22.04.2015 14:20 7,8 C 20,7 C 9,2 C 9,7 C 9,7 C 1,9 C 73 % 71 % 50 % 1026,4 hPa 0,0 l/m 2,1 km/h (1 Bft) N 360 0 min 3,3 C 9,7 C 0,0 km/h (0 Bft)
22.04.2015 14:25 7,8 C 20,7 C 9,5 C 10,0 C 10,0 C 2,2 C 73 % 71 % 58 % 1026,4 hPa 0,0 l/m 1,3 km/h (1 Bft) N 360 0 min 3,3 C 10,0 C 0,0 km/h (0 Bft)
22.04.2015 14:30 8,1 C 20,7 C 9,8 C 10,5 C 10,5 C 2,4 C 72 % 70 % 63 % 1026,4 hPa 0,0 l/m 0,2 km/h (0 Bft) O-SO 112 0 min 3,4 C 10,5 C 0,0 km/h (0 Bft)
22.04.2015 14:35 8,3 C 20,6 C 10,2 C 11,0 C 11,0 C 2,7 C 72 % 70 % 71 % 1026,1 hPa 0,0 l/m 0,0 km/h (0 Bft) S-SW 202 0 min 3,6 C 11,0 C 0,0 km/h (0 Bft)
22.04.2015 14:40 8,4 C 20,6 C 10,9 C 12,0 C 12,0 C 3,6 C 71 % 69 % 95 % 1026,1 hPa 0,0 l/m 1,0 km/h (0 Bft) S 180 5 min 3,5 C 12,0 C 0,0 km/h (0 Bft)
22.04.2015 14:45 8,7 C 20,6 C 10,8 C 12,3 C 12,3 C 3,6 C 70 % 67 % 95 % 1026,1 hPa 0,0 l/m 1,4 km/h (1 Bft) W-SW 247 5 min 3,5 C 12,3 C 4,2 km/h (1 Bft)
22.04.2015 14:50 8,7 C 20,6 C 10,9 C 12,3 C 12,3 C 3,6 C 69 % 66 % 95 % 1026,1 hPa 0,0 l/m 1,1 km/h (1 Bft) NW 315 5 min 3,3 C 12,3 C 0,0 km/h (0 Bft)
22.04.2015 14:55 8,8 C 20,6 C 10,8 C 12,3 C 12,3 C 3,5 C 69 % 65 % 92 % 1026,1 hPa 0,0 l/m 1,0 km/h (0 Bft) SW 225 5 min 3,4 C 12,3 C 0,0 km/h (0 Bft)
22.04.2015 15:00 9,1 C 20,6 C 10,4 C 12,0 C 12,0 C 2,9 C 68 % 66 % 76 % 1026,1 hPa 0,0 l/m 0,3 km/h (0 Bft) O-NO 67 0 min 3,5 C 12,0 C 1,8 km/h (1 Bft)
22.04.2015 15:05 9,0 C 20,6 C 10,3 C 11,5 C 11,5 C 2,5 C 68 % 66 % 66 % 1026,1 hPa 0,0 l/m 0,6 km/h (0 Bft) SW 225 0 min 3,4 C 11,5 C 3,2 km/h (1 Bft)
22.04.2015 15:10 8,8 C 20,6 C 10,3 C 11,0 C 11,0 C 2,2 C 68 % 66 % 58 % 1026,1 hPa 0,0 l/m 1,8 km/h (1 Bft) NW 315 0 min 3,2 C 11,0 C 3,2 km/h (1 Bft)
22.04.2015 15:15 8,8 C 20,6 C 10,3 C 10,8 C 10,8 C 2,0 C 68 % 66 % 53 % 1026,0 hPa 0,0 l/m 2,3 km/h (1 Bft) W-SW 247 0 min 3,2 C 10,8 C 4,2 km/h (1 Bft)
22.04.2015 15:20 8,8 C 20,6 C 10,5 C 10,6 C 10,6 C 1,8 C 68 % 66 % 47 % 1026,0 hPa 0,0 l/m 3,5 km/h (1 Bft) W-SW 247 0 min 3,2 C 10,6 C 5,8 km/h (2 Bft)
22.04.2015 15:25 8,8 C 20,6 C 10,6 C 10,6 C 10,6 C 1,8 C 69 % 66 % 47 % 1026,0 hPa 0,0 l/m 4,2 km/h (1 Bft) W-SW 247 0 min 3,4 C 10,6 C 2,4 km/h (1 Bft)
22.04.2015 15:30 8,7 C 20,6 C 10,7 C 10,7 C 10,7 C 2,0 C 70 % 66 % 53 % 1026,0 hPa 0,0 l/m 3,7 km/h (1 Bft) S-SO 157 0 min 3,5 C 10,7 C 0,0 km/h (0 Bft)
22.04.2015 15:35 8,9 C 20,6 C 10,5 C 10,8 C 10,8 C 1,9 C 70 % 66 % 50 % 1026,4 hPa 0,0 l/m 2,6 km/h (1 Bft) W-SW 247 0 min 3,7 C 10,8 C 2,6 km/h (1 Bft)
22.04.2015 15:40 8,7 C 20,6 C 10,3 C 10,6 C 10,6 C 1,9 C 70 % 67 % 50 % 1026,4 hPa 0,0 l/m 2,3 km/h (1 Bft) W-SW 247 0 min 3,5 C 10,6 C 3,5 km/h (1 Bft)
22.04.2015 15:45 8,7 C 20,7 C 10,0 C 10,3 C 10,3 C 1,6 C 70 % 68 % 42 % 1026,4 hPa 0,0 l/m 3,1 km/h (1 Bft) W 270 0 min 3,5 C 10,3 C 6,0 km/h (2 Bft)
22.04.2015 15:50 8,5 C 20,7 C 9,9 C 10,0 C 10,0 C 1,5 C 71 % 68 % 39 % 1026,4 hPa 0,0 l/m 2,4 km/h (1 Bft) W-SW 247 0 min 3,5 C 10,0 C 5,5 km/h (1 Bft)
22.04.2015 15:55 8,4 C 20,7 C 9,7 C 9,8 C 9,8 C 1,4 C 71 % 68 % 37 % 1026,4 hPa 0,0 l/m 1,9 km/h (1 Bft) N-NO 22 0 min 3,5 C 9,8 C 3,4 km/h (1 Bft)
22.04.2015 16:00 8,4 C 20,7 C 9,6 C 9,6 C 9,6 C 1,2 C 70 % 68 % 32 % 1026,4 hPa 0,0 l/m 2,6 km/h (1 Bft) N-NW 337 0 min 3,3 C 9,6 C 5,5 km/h (1 Bft)
22.04.2015 16:05 8,3 C 20,7 C 9,6 C 9,5 C 9,5 C 1,2 C 71 % 68 % 32 % 1026,4 hPa 0,0 l/m 2,6 km/h (1 Bft) W-SW 247 0 min 3,4 C 9,5 C 1,8 km/h (1 Bft)
22.04.2015 16:10 8,3 C 20,7 C 9,6 C 9,6 C 9,6 C 1,3 C 71 % 69 % 34 % 1026,4 hPa 0,0 l/m 3,4 km/h (1 Bft) W-SW 247 0 min 3,4 C 9,6 C 8,4 km/h (2 Bft)
22.04.2015 16:15 8,4 C 20,7 C 9,9 C 9,8 C 9,8 C 1,4 C 72 % 69 % 37 % 1026,4 hPa 0,0 l/m 2,9 km/h (1 Bft) W-NW 292 0 min 3,7 C 9,8 C 2,1 km/h (1 Bft)
22.04.2015 16:20 8,5 C 20,7 C 10,1 C 10,4 C 10,4 C 1,9 C 72 % 69 % 50 % 1026,4 hPa 0,0 l/m 2,1 km/h (1 Bft) NW 315 0 min 3,7 C 10,4 C 3,2 km/h (1 Bft)
22.04.2015 16:25 8,7 C 20,7 C 10,0 C 10,5 C 10,5 C 1,8 C 71 % 69 % 47 % 1026,4 hPa 0,0 l/m 1,6 km/h (1 Bft) N 360 0 min 3,7 C 10,5 C 3,4 km/h (1 Bft)
22.04.2015 16:30 8,7 C 20,6 C 10,3 C 10,7 C 10,7 C 2,0 C 71 % 69 % 53 % 1026,4 hPa 0,0 l/m 2,3 km/h (1 Bft) NW 315 0 min 3,7 C 10,7 C 3,4 km/h (1 Bft)
22.04.2015 16:35 8,7 C 20,6 C 10,5 C 11,0 C 11,0 C 2,3 C 70 % 68 % 61 % 1025,6 hPa 0,0 l/m 2,7 km/h (1 Bft) W-SW 247 0 min 3,5 C 11,0 C 3,1 km/h (1 Bft)
22.04.2015 16:40 9,1 C 20,7 C 11,2 C 12,0 C 12,0 C 2,9 C 71 % 68 % 76 % 1025,6 hPa 0,0 l/m 3,4 km/h (1 Bft) SW 225 0 min 4,1 C 12,0 C 3,9 km/h (1 Bft)
22.04.2015 16:45 9,5 C 20,7 C 11,5 C 13,3 C 13,3 C 3,8 C 70 % 68 % 100 % 1025,6 hPa 0,0 l/m 3,7 km/h (1 Bft) SW 225 5 min 4,3 C 13,3 C 5,1 km/h (1 Bft)
22.04.2015 16:50 9,7 C 20,7 C 11,9 C 14,5 C 14,5 C 4,8 C 68 % 67 % 100 % 1025,6 hPa 0,0 l/m 3,2 km/h (1 Bft) O-SO 112 5 min 4,1 C 14,5 C 0,0 km/h (0 Bft)
22.04.2015 16:55 9,9 C 20,7 C 12,0 C 15,2 C 15,2 C 5,3 C 68 % 65 % 100 % 1025,1 hPa 0,0 l/m 2,4 km/h (1 Bft) S 180 5 min 4,3 C 15,2 C 4,8 km/h (1 Bft)
22.04.2015 17:00 9,8 C 20,7 C 12,3 C 15,5 C 15,5 C 5,7 C 66 % 64 % 100 % 1025,1 hPa 0,0 l/m 2,9 km/h (1 Bft) W-SW 247 5 min 3,8 C 15,5 C 5,5 km/h (1 Bft)
22.04.2015 17:05 9,9 C 20,7 C 12,7 C 15,5 C 15,5 C 5,6 C 66 % 64 % 100 % 1025,1 hPa 0,0 l/m 3,4 km/h (1 Bft) SW 225 5 min 3,9 C 15,5 C 4,5 km/h (1 Bft)
22.04.2015 17:10 10,3 C 20,7 C 12,5 C 15,6 C 15,6 C 5,3 C 65 % 62 % 100 % 1025,1 hPa 0,0 l/m 2,6 km/h (1 Bft) S 180 5 min 4,0 C 15,6 C 0,0 km/h (0 Bft)
22.04.2015 17:15 10,3 C 20,7 C 12,5 C 15,7 C 15,7 C 5,4 C 64 % 61 % 100 % 1025,4 hPa 0,0 l/m 2,9 km/h (1 Bft) W-NW 292 5 min 3,8 C 15,7 C 3,7 km/h (1 Bft)
22.04.2015 17:20 10,4 C 20,7 C 13,0 C 16,1 C 16,1 C 5,7 C 64 % 61 % 100 % 1025,4 hPa 0,0 l/m 2,7 km/h (1 Bft) N 360 5 min 3,9 C 16,1 C 0,0 km/h (0 Bft)
22.04.2015 17:25 10,5 C 20,7 C 13,5 C 16,8 C 16,8 C 6,3 C 63 % 60 % 100 % 1025,4 hPa 0,0 l/m 2,7 km/h (1 Bft) S-SW 202 5 min 3,8 C 16,8 C 4,7 km/h (1 Bft)
22.04.2015 17:30 10,7 C 20,7 C 13,8 C 17,2 C 17,2 C 6,5 C 62 % 58 % 100 % 1025,4 hPa 0,0 l/m 2,6 km/h (1 Bft) W-SW 247 5 min 3,7 C 17,2 C 4,5 km/h (1 Bft)
22.04.2015 17:35 10,8 C 20,7 C 13,5 C 17,0 C 17,0 C 6,2 C 62 % 58 % 100 % 1025,2 hPa 0,0 l/m 3,2 km/h (1 Bft) W-SW 247 5 min 3,8 C 17,0 C 3,7 km/h (1 Bft)
22.04.2015 17:40 10,8 C 20,7 C 13,1 C 16,5 C 16,5 C 5,7 C 61 % 57 % 100 % 1025,2 hPa 0,0 l/m 3,1 km/h (1 Bft) W-SW 247 5 min 3,6 C 16,5 C 5,5 km/h (1 Bft)
22.04.2015 17:45 10,6 C 20,7 C 12,5 C 15,3 C 15,3 C 4,7 C 61 % 57 % 100 % 1025,2 hPa 0,0 l/m 2,7 km/h (1 Bft) W 270 5 min 3,4 C 15,3 C 2,4 km/h (1 Bft)
22.04.2015 17:50 10,2 C 20,7 C 11,9 C 13,3 C 13,3 C 3,1 C 61 % 58 % 82 % 1025,2 hPa 0,0 l/m 4,2 km/h (1 Bft) SW 225 0 min 3,0 C 13,3 C 5,8 km/h (2 Bft)
22.04.2015 17:55 10,0 C 20,7 C 11,9 C 12,4 C 12,4 C 2,4 C 61 % 59 % 63 % 1025,5 hPa 0,0 l/m 4,0 km/h (1 Bft) W 270 0 min 2,8 C 12,4 C 4,2 km/h (1 Bft)
22.04.2015 18:00 10,1 C 20,7 C 11,7 C 11,7 C 11,7 C 1,6 C 62 % 59 % 42 % 1025,5 hPa 0,0 l/m 3,5 km/h (1 Bft) W-SW 247 0 min 3,2 C 11,7 C 4,7 km/h (1 Bft)
22.04.2015 18:05 10,1 C 20,7 C 11,5 C 11,4 C 11,4 C 1,3 C 62 % 59 % 34 % 1025,5 hPa 0,0 l/m 3,5 km/h (1 Bft) NW 315 0 min 3,2 C 11,4 C 2,6 km/h (1 Bft)
22.04.2015 18:10 9,9 C 20,7 C 11,4 C 11,4 C 11,4 C 1,5 C 62 % 60 % 39 % 1025,5 hPa 0,0 l/m 2,7 km/h (1 Bft) SW 225 0 min 3,0 C 11,4 C 3,4 km/h (1 Bft)
22.04.2015 18:15 9,9 C 20,7 C 11,3 C 11,3 C 11,3 C 1,4 C 62 % 60 % 37 % 1025,1 hPa 0,0 l/m 2,3 km/h (1 Bft) NW 315 0 min 3,0 C 11,3 C 3,2 km/h (1 Bft)
22.04.2015 18:20 9,9 C 20,7 C 10,9 C 11,0 C 11,0 C 1,1 C 63 % 61 % 29 % 1025,1 hPa 0,0 l/m 1,8 km/h (1 Bft) S-SW 202 0 min 3,2 C 11,0 C 0,0 km/h (0 Bft)
22.04.2015 18:25 9,9 C 20,7 C 10,7 C 10,8 C 10,8 C 0,9 C 64 % 62 % 24 % 1025,1 hPa 0,0 l/m 2,4 km/h (1 Bft) W-SW 247 0 min 3,4 C 10,8 C 5,6 km/h (1 Bft)
22.04.2015 18:30 9,6 C 20,7 C 10,5 C 10,4 C 10,4 C 0,8 C 65 % 63 % 21 % 1025,1 hPa 0,0 l/m 3,2 km/h (1 Bft) W-SW 247 0 min 3,4 C 10,4 C 4,0 km/h (1 Bft)
22.04.2015 18:35 9,5 C 20,7 C 10,4 C 10,2 C 10,2 C 0,7 C 65 % 64 % 18 % 1024,9 hPa 0,0 l/m 3,2 km/h (1 Bft) SW 225 0 min 3,3 C 10,2 C 3,7 km/h (1 Bft)
22.04.2015 18:40 9,5 C 20,7 C 10,3 C 10,1 C 10,1 C 0,6 C 65 % 64 % 16 % 1024,9 hPa 0,0 l/m 1,8 km/h (1 Bft) NW 315 0 min 3,3 C 10,1 C 4,7 km/h (1 Bft)
22.04.2015 18:45 9,5 C 20,7 C 10,1 C 10,0 C 10,0 C 0,5 C 65 % 64 % 13 % 1024,9 hPa 0,0 l/m 1,6 km/h (1 Bft) S-SO 157 0 min 3,3 C 10,0 C 2,6 km/h (1 Bft)
22.04.2015 18:50 9,3 C 20,7 C 10,0 C 9,8 C 9,8 C 0,5 C 65 % 65 % 13 % 1024,9 hPa 0,0 l/m 1,3 km/h (1 Bft) N-NO 22 0 min 3,1 C 9,8 C 0,0 km/h (0 Bft)
22.04.2015 18:55 9,4 C 20,7 C 9,9 C 9,7 C 9,7 C 0,3 C 66 % 65 % 8 % 1024,9 hPa 0,0 l/m 1,0 km/h (0 Bft) W 270 0 min 3,4 C 9,7 C 2,4 km/h (1 Bft)
22.04.2015 19:00 9,3 C 20,7 C 9,7 C 9,6 C 9,6 C 0,3 C 66 % 65 % 8 % 1024,9 hPa 0,0 l/m 0,6 km/h (0 Bft) NW 315 0 min 3,3 C 9,6 C 2,1 km/h (1 Bft)
22.04.2015 19:05 9,3 C 20,7 C 9,6 C 9,4 C 9,4 C 0,1 C 66 % 66 % 3 % 1024,9 hPa 0,0 l/m 0,5 km/h (0 Bft) SO 135 0 min 3,3 C 9,4 C 0,0 km/h (0 Bft)
22.04.2015 19:10 9,2 C 20,7 C 9,4 C 9,2 C 9,2 C 0,0 C 66 % 66 % 0 % 1024,9 hPa 0,0 l/m 0,8 km/h (0 Bft) W 270 0 min 3,2 C 9,2 C 2,1 km/h (1 Bft)
22.04.2015 19:15 9,2 C 20,7 C 9,3 C 9,1 C 9,0 C 0,0 C 66 % 67 % 0 % 1024,9 hPa 0,0 l/m 0,6 km/h (0 Bft) N 360 0 min 3,2 C 9,0 C 0,0 km/h (0 Bft)
22.04.2015 19:20 9,1 C 20,8 C 9,1 C 8,9 C 8,6 C 0,0 C 67 % 67 % 0 % 1024,9 hPa 0,0 l/m 0,6 km/h (0 Bft) N 360 0 min 3,3 C 8,6 C 2,9 km/h (1 Bft)
22.04.2015 19:25 8,9 C 20,8 C 8,8 C 8,7 C 8,3 C 0,0 C 67 % 67 % 0 % 1024,9 hPa 0,0 l/m 0,5 km/h (0 Bft) N-NO 22 0 min 3,1 C 8,3 C 0,0 km/h (0 Bft)
22.04.2015 19:30 8,8 C 20,8 C 8,7 C 8,6 C 8,1 C 0,0 C 67 % 68 % 0 % 1024,9 hPa 0,0 l/m 0,3 km/h (0 Bft) O-SO 112 0 min 3,0 C 8,1 C 0,0 km/h (0 Bft)
22.04.2015 19:35 8,6 C 20,8 C 8,5 C 8,6 C 8,6 C 0,0 C 67 % 68 % 0 % 1024,5 hPa 0,0 l/m 0,0 km/h (0 Bft) N-NO 22 0 min 2,8 C 8,6 C 0,0 km/h (0 Bft)
22.04.2015 19:40 8,5 C 20,8 C 8,3 C 9,4 C 9,4 C 0,9 C 67 % 70 % 24 % 1024,5 hPa 0,0 l/m 0,0 km/h (0 Bft) W-SW 247 5 min 2,7 C 9,4 C 0,0 km/h (0 Bft)
22.04.2015 19:45 8,4 C 20,8 C 8,1 C 9,7 C 9,7 C 1,3 C 68 % 70 % 34 % 1024,5 hPa 0,0 l/m 0,0 km/h (0 Bft) O-SO 112 5 min 2,8 C 9,7 C 0,0 km/h (0 Bft)
22.04.2015 19:50 8,3 C 20,8 C 7,9 C 9,4 C 9,4 C 1,1 C 68 % 70 % 29 % 1024,5 hPa 0,0 l/m 0,0 km/h (0 Bft) O-NO 67 5 min 2,7 C 9,4 C 0,0 km/h (0 Bft)
22.04.2015 19:55 8,3 C 20,8 C 7,5 C 8,9 C 8,9 C 0,6 C 69 % 71 % 16 % 1024,8 hPa 0,0 l/m 0,0 km/h (0 Bft) N-NW 337 5 min 3,0 C 8,9 C 0,0 km/h (0 Bft)
22.04.2015 20:00 8,0 C 20,8 C 7,4 C 8,1 C 8,1 C 0,1 C 69 % 72 % 3 % 1024,8 hPa 0,0 l/m 0,0 km/h (0 Bft) N-NW 337 0 min 2,7 C 8,1 C 0,0 km/h (0 Bft)
22.04.2015 20:05 7,9 C 20,8 C 7,2 C 7,8 C 7,6 C 0,0 C 69 % 72 % 0 % 1024,8 hPa 0,0 l/m 0,0 km/h (0 Bft) N-NW 337 0 min 2,6 C 7,6 C 0,0 km/h (0 Bft)
22.04.2015 20:10 7,7 C 20,8 C 6,9 C 7,5 C 7,0 C 0,0 C 70 % 72 % 0 % 1024,8 hPa 0,0 l/m 0,0 km/h (0 Bft) N-NW 337 0 min 2,6 C 7,0 C 0,0 km/h (0 Bft)
22.04.2015 20:15 7,6 C 20,8 C 6,7 C 7,3 C 6,6 C 0,0 C 70 % 73 % 0 % 1025,1 hPa 0,0 l/m 0,0 km/h (0 Bft) N-NW 337 0 min 2,5 C 6,6 C 0,0 km/h (0 Bft)
22.04.2015 20:20 7,3 C 20,8 C 6,4 C 6,8 C 5,9 C 0,0 C 70 % 73 % 0 % 1025,1 hPa 0,0 l/m 0,0 km/h (0 Bft) SW 225 0 min 2,2 C 5,9 C 0,0 km/h (0 Bft)
22.04.2015 20:25 7,2 C 20,8 C 6,2 C 6,6 C 5,5 C 0,0 C 71 % 74 % 0 % 1025,1 hPa 0,0 l/m 0,0 km/h (0 Bft) SW 225 0 min 2,3 C 5,5 C 0,0 km/h (0 Bft)
22.04.2015 20:30 6,9 C 20,8 C 6,0 C 6,3 C 5,1 C 0,0 C 71 % 75 % 0 % 1025,1 hPa 0,0 l/m 0,0 km/h (0 Bft) SW 225 0 min 2,0 C 5,1 C 0,0 km/h (0 Bft)
22.04.2015 20:35 6,8 C 20,8 C 5,9 C 6,1 C 4,8 C 0,0 C 72 % 75 % 0 % 1025,6 hPa 0,0 l/m 0,0 km/h (0 Bft) W-SW 247 0 min 2,1 C 4,8 C 0,0 km/h (0 Bft)
22.04.2015 20:40 6,6 C 20,8 C 5,6 C 5,9 C 4,6 C 0,0 C 73 % 77 % 0 % 1025,6 hPa 0,0 l/m 0,0 km/h (0 Bft) O 90 0 min 2,1 C 4,6 C 0,0 km/h (0 Bft)
22.04.2015 20:45 6,4 C 20,8 C 5,6 C 5,8 C 4,6 C 0,0 C 73 % 77 % 0 % 1025,6 hPa 0,0 l/m 0,0 km/h (0 Bft) O-NO 67 0 min 1,9 C 4,6 C 0,0 km/h (0 Bft)
22.04.2015 20:50 6,3 C 20,9 C 5,5 C 5,7 C 4,5 C 0,0 C 74 % 77 % 0 % 1025,6 hPa 0,0 l/m 0,0 km/h (0 Bft) O-NO 67 0 min 2,0 C 4,5 C 0,0 km/h (0 Bft)
22.04.2015 20:55 6,1 C 20,9 C 5,2 C 5,4 C 4,1 C 0,0 C 74 % 77 % 0 % 1025,3 hPa 0,0 l/m 0,0 km/h (0 Bft) W 270 0 min 1,8 C 4,1 C 0,0 km/h (0 Bft)
22.04.2015 21:00 5,9 C 21,0 C 4,9 C 5,1 C 3,6 C 0,0 C 74 % 77 % 0 % 1025,3 hPa 0,0 l/m 0,0 km/h (0 Bft) W 270 0 min 1,6 C 3,6 C 0,0 km/h (0 Bft)
22.04.2015 21:05 5,7 C 21,0 C 4,6 C 4,9 C 3,3 C 0,0 C 75 % 77 % 0 % 1025,3 hPa 0,0 l/m 0,0 km/h (0 Bft) O-NO 67 0 min 1,6 C 3,3 C 0,0 km/h (0 Bft)
22.04.2015 21:10 5,5 C 21,0 C 4,4 C 4,8 C 3,3 C 0,0 C 76 % 79 % 0 % 1025,3 hPa 0,0 l/m 0,0 km/h (0 Bft) O-NO 67 0 min 1,6 C 3,3 C 0,0 km/h (0 Bft)
22.04.2015 21:15 5,3 C 21,0 C 4,4 C 4,6 C 3,2 C 0,0 C 76 % 79 % 0 % 1025,1 hPa 0,0 l/m 0,0 km/h (0 Bft) O-NO 67 0 min 1,4 C 3,2 C 0,0 km/h (0 Bft)
22.04.2015 21:20 5,1 C 21,0 C 4,4 C 4,3 C 2,8 C 0,0 C 76 % 80 % 0 % 1025,1 hPa 0,0 l/m 0,0 km/h (0 Bft) SW 225 0 min 1,2 C 2,8 C 0,0 km/h (0 Bft)
22.04.2015 21:25 5,1 C 21,0 C 4,4 C 4,3 C 2,7 C 0,0 C 77 % 80 % 0 % 1025,1 hPa 0,0 l/m 0,2 km/h (0 Bft) N-NW 337 0 min 1,4 C 2,7 C 1,9 km/h (1 Bft)
22.04.2015 21:30 4,8 C 21,1 C 4,0 C 4,1 C 2,7 C 0,0 C 77 % 80 % 0 % 1025,1 hPa 0,0 l/m 0,3 km/h (0 Bft) N 360 0 min 1,1 C 2,7 C 0,0 km/h (0 Bft)
22.04.2015 21:35 4,7 C 21,1 C 3,9 C 4,0 C 2,6 C 0,0 C 77 % 80 % 0 % 1024,9 hPa 0,0 l/m 0,3 km/h (0 Bft) O-NO 67 0 min 1,0 C 2,6 C 0,0 km/h (0 Bft)
22.04.2015 21:40 4,4 C 21,1 C 3,6 C 3,7 C 2,4 C 0,0 C 78 % 81 % 0 % 1024,9 hPa 0,0 l/m 0,0 km/h (0 Bft) O-NO 67 0 min 0,9 C 2,4 C 0,0 km/h (0 Bft)
22.04.2015 21:45 4,3 C 21,1 C 3,7 C 3,6 C 2,2 C 0,0 C 78 % 81 % 0 % 1024,9 hPa 0,0 l/m 0,0 km/h (0 Bft) O-NO 67 0 min 0,8 C 2,2 C 0,0 km/h (0 Bft)
22.04.2015 21:50 4,0 C 21,0 C 3,6 C 3,3 C 2,0 C 0,0 C 79 % 82 % 0 % 1024,9 hPa 0,0 l/m 0,0 km/h (0 Bft) W-SW 247 0 min 0,7 C 2,0 C 0,0 km/h (0 Bft)
22.04.2015 21:55 3,9 C 21,1 C 3,5 C 3,2 C 1,9 C 0,0 C 79 % 81 % 0 % 1024,9 hPa 0,0 l/m 0,0 km/h (0 Bft) W-SW 247 0 min 0,6 C 1,9 C 0,0 km/h (0 Bft)
22.04.2015 22:00 3,7 C 21,0 C 3,3 C 3,0 C 1,7 C 0,0 C 79 % 82 % 0 % 1024,9 hPa 0,0 l/m 0,0 km/h (0 Bft) W-SW 247 0 min 0,4 C 1,7 C 0,0 km/h (0 Bft)
22.04.2015 22:05 3,7 C 21,1 C 3,3 C 3,1 C 1,8 C 0,0 C 79 % 82 % 0 % 1024,9 hPa 0,0 l/m 0,0 km/h (0 Bft) N-NW 337 0 min 0,4 C 1,8 C 0,0 km/h (0 Bft)
22.04.2015 22:10 3,5 C 21,1 C 3,2 C 2,9 C 1,7 C 0,0 C 80 % 83 % 0 % 1024,9 hPa 0,0 l/m 0,0 km/h (0 Bft) N-NW 337 0 min 0,4 C 1,7 C 0,0 km/h (0 Bft)
22.04.2015 22:15 3,3 C 21,1 C 3,2 C 2,8 C 1,7 C 0,0 C 80 % 83 % 0 % 1024,6 hPa 0,0 l/m 0,0 km/h (0 Bft) O-NO 67 0 min 0,2 C 1,7 C 0,0 km/h (0 Bft)
22.04.2015 22:20 3,2 C 21,1 C 3,1 C 2,6 C 1,5 C 0,0 C 80 % 83 % 0 % 1024,6 hPa 0,0 l/m 0,0 km/h (0 Bft) NW 315 0 min 0,1 C 1,5 C 0,0 km/h (0 Bft)
22.04.2015 22:25 2,9 C 21,0 C 3,0 C 2,4 C 1,4 C 0,0 C 81 % 83 % 0 % 1024,6 hPa 0,0 l/m 0,0 km/h (0 Bft) W-SW 247 0 min -0,0 C 1,4 C 0,0 km/h (0 Bft)
22.04.2015 22:30 2,8 C 21,1 C 2,8 C 2,2 C 1,1 C 0,0 C 81 % 83 % 0 % 1024,6 hPa 0,0 l/m 0,0 km/h (0 Bft) W 270 0 min -0,1 C 1,1 C 0,0 km/h (0 Bft)
22.04.2015 22:35 2,7 C 21,1 C 2,8 C 2,1 C 0,9 C 0,0 C 81 % 83 % 0 % 1024,6 hPa 0,0 l/m 0,0 km/h (0 Bft) W 270 0 min -0,2 C 0,9 C 0,0 km/h (0 Bft)
22.04.2015 22:40 2,4 C 21,1 C 2,5 C 1,9 C 0,9 C 0,0 C 81 % 83 % 0 % 1024,6 hPa 0,0 l/m 0,0 km/h (0 Bft) W 270 0 min -0,5 C 0,9 C 0,0 km/h (0 Bft)
22.04.2015 22:45 2,3 C 21,1 C 2,4 C 1,8 C 0,7 C 0,0 C 81 % 84 % 0 % 1024,6 hPa 0,0 l/m 0,0 km/h (0 Bft) W 270 0 min -0,6 C 0,7 C 0,0 km/h (0 Bft)
22.04.2015 22:50 2,1 C 21,1 C 2,4 C 1,7 C 0,8 C 0,0 C 81 % 84 % 0 % 1024,6 hPa 0,0 l/m 0,0 km/h (0 Bft) NO 45 0 min -0,8 C 0,8 C 0,0 km/h (0 Bft)
22.04.2015 22:55 2,0 C 21,1 C 2,3 C 1,6 C 0,8 C 0,0 C 81 % 84 % 0 % 1024,9 hPa 0,0 l/m 0,0 km/h (0 Bft) NO 45 0 min -0,9 C 0,8 C 0,0 km/h (0 Bft)
22.04.2015 23:00 1,8 C 21,1 C 2,3 C 1,4 C 0,6 C 0,0 C 82 % 84 % 0 % 1024,9 hPa 0,0 l/m 0,2 km/h (0 Bft) W-SW 247 0 min -0,9 C 0,6 C 0,0 km/h (0 Bft)
22.04.2015 23:05 1,7 C 21,1 C 2,3 C 1,3 C 0,5 C 0,0 C 82 % 84 % 0 % 1024,9 hPa 0,0 l/m 0,2 km/h (0 Bft) S 180 0 min -1,0 C 0,5 C 0,0 km/h (0 Bft)
22.04.2015 23:10 1,6 C 21,1 C 2,1 C 1,2 C 0,4 C 0,0 C 82 % 84 % 0 % 1024,9 hPa 0,0 l/m 0,0 km/h (0 Bft) O 90 0 min -1,1 C 0,4 C 0,0 km/h (0 Bft)
22.04.2015 23:15 1,5 C 21,1 C 1,8 C 1,1 C 0,3 C 0,0 C 82 % 84 % 0 % 1024,8 hPa 0,0 l/m 0,0 km/h (0 Bft) O 90 0 min -1,2 C 0,3 C 0,0 km/h (0 Bft)
22.04.2015 23:20 1,3 C 21,0 C 1,7 C 1,0 C 0,4 C 0,0 C 82 % 84 % 0 % 1024,8 hPa 0,0 l/m 0,0 km/h (0 Bft) O-NO 67 0 min -1,4 C 0,4 C 0,0 km/h (0 Bft)
22.04.2015 23:25 1,2 C 21,0 C 1,7 C 0,9 C 0,3 C 0,0 C 83 % 85 % 0 % 1024,8 hPa 0,0 l/m 0,5 km/h (0 Bft) NW 315 0 min -1,4 C 0,3 C 0,0 km/h (0 Bft)
22.04.2015 23:30 1,1 C 21,0 C 1,6 C 0,9 C 0,4 C 0,0 C 83 % 85 % 0 % 1024,8 hPa 0,0 l/m 0,5 km/h (0 Bft) O 90 0 min -1,5 C 0,4 C 0,0 km/h (0 Bft)
22.04.2015 23:35 1,1 C 21,0 C 1,7 C 0,8 C 0,3 C 0,0 C 83 % 85 % 0 % 1024,4 hPa 0,0 l/m 0,0 km/h (0 Bft) O-SO 112 0 min -1,5 C 0,3 C 0,0 km/h (0 Bft)
22.04.2015 23:40 0,8 C 21,0 C 1,5 C 0,6 C 0,3 C 0,0 C 83 % 85 % 0 % 1024,4 hPa 0,0 l/m 0,0 km/h (0 Bft) O 90 0 min -1,8 C 0,3 C 0,0 km/h (0 Bft)
22.04.2015 23:45 0,8 C 21,0 C 1,4 C 0,6 C 0,3 C 0,0 C 83 % 85 % 0 % 1024,4 hPa 0,0 l/m 0,0 km/h (0 Bft) NW 315 0 min -1,8 C 0,3 C 1,6 km/h (1 Bft)
22.04.2015 23:50 0,7 C 21,0 C 1,4 C 0,5 C 0,2 C 0,0 C 83 % 85 % 0 % 1024,4 hPa 0,0 l/m 0,3 km/h (0 Bft) W-SW 247 0 min -1,8 C 0,2 C 0,0 km/h (0 Bft)
22.04.2015 23:55 0,7 C 21,0 C 1,5 C 0,5 C 0,0 C 0,0 C 83 % 86 % 0 % 1024,4 hPa 0,0 l/m 0,3 km/h (0 Bft) W-SW 247 0 min -1,8 C 0,0 C 0,0 km/h (0 Bft)
_ Min-Zeit 23:50 14:35 23:45 23:50 23:55 00:00 00:00 00:00 00:00 23:35 - 14:00 - - - 23:50 23:55 00:00
Minimum _ 0,7 C 20,6 C 1,4 C 0,5 C 0,0 C 0,0 C 51 % 57 % 0 % 1024,4 hPa - 0,0 km/h (0 Bft) - - - -1,8 C 0,0 C 0,0 km/h (0 Bft)
_ Max-Zeit 00:00 00:00 17:30 17:30 17:30 17:30 23:25 23:55 16:45 00:00 00:00 09:55 - - 10:40 16:45 17:30 04:45
Maximum _ 11,1 C 22,7 C 13,8 C 17,2 C 17,2 C 6,5 C 83 % 86 % 100 % 1027,8 hPa 0,0 l/m 6,4 km/h
W-SW (2 Bft)
- - 5 min 4,3 C 17,2 C 12,9 km/h
S-SW (3 Bft)
Durchschnitt _ 6,9 C 21,2 C 7,6 C 7,7 C 7,3 C 1,0 C 71 % 71 % 23 % 1026,5 hPa #0,0 l/m 1,9 km/h (1 Bft) W-SW - #1:55 h 1,9 C 7,3 C 2,7 km/h (1 Bft)
2015 www.wetterstation-wechselburg.de